User: anonymous   Login
Location: Unspecified
(0.0000°N, 0.0000°E)
Time: 02:14:35
(UTC+02:00)
Language:

Cosmos 1300 - Orbit

View from above orbital plane
View from above orbital plane
View from above satellite
View from above satellite

Ground track
Ground track

The orbit data is extracted from the following two-line orbital elements,

1 12785U 81082A   16180.34041852  .00000358  00000-0  16945-4 0  9990
2 12785  82.5048  62.9209 0002565  65.5466  54.8105 15.16119421898223
Epoch (UTC): 28 June 2016 08:10:12
Eccentricity: 0.0002565
inclination: 82.5048°
perigee height: 516 km
apogee height: 519 km
right ascension of ascending node: 62.9209°
argument of perigee: 65.5466°
revolutions per day: 15.16119421
mean anomaly at epoch: 54.8105°
orbit number at epoch: 89822

The dashed part of the orbit path shows where the satellite is in the earth's shadow,  

DLR